Location: Unspecified
(0.0000°N, 0.0000°E)
Time: 09:04:10
(UTC+00:00)

ITAMSAT 1 - Pass Details

Date: 14 December 2017
Orbit: 785 x 796 km, 98.9° (Epoch: 19 July)

Event Time Altitude Azimuth Distance (km) Brightness Sun altitude
Exits shadow 02:40:25 13° 142° (SE) 2,160 10.4 -43.5°
Drops below altitude 10° 02:41:08 10° 148° (SSE) 2,345 10.6 -43.4°
Sets 02:44:04 0° 165° (SSE) 3,277 11.4 -42.8°
